20050713,000029,1222335,34.273332,-120.043725,17.1,16.735,33.668,43.113,816.87,0.0,2.218,16.573,16.528, NaN,24.554,   NaN,15.55,1013.88,100.00,15.84,18.3,18.2,4.5,4.8,277.3,276.8,3.7,4.1,NaN, NaN,16.0,226.5,241.5,1121212830,1121212830,1,1.6,000030,000030,253.7,34.273338,-120.043585,1.62,NaN,NaN,16.739, NaN,NaN,-0.3, NaN, NaN
20050713,000059,1222365,34.273260,-120.043973,17.2,16.704,33.668,43.083,843.31,0.0,2.218,16.552,16.510, NaN,24.561,   NaN,15.50,1013.79,100.00,15.82,12.8,13.7,5.1,5.4,269.8,270.6,4.3,4.7,NaN, NaN,16.3,295.7,275.3,1121212860,1121212860,1,1.9,000059,000060,255.5,34.273267,-120.043847,1.53,NaN,NaN,16.708, NaN,NaN,-0.3, NaN, NaN
20050713,000129,1222395,34.273175,-120.044233,17.1,16.738,33.626,43.068,838.48,0.0,2.218,16.541,16.500, NaN,24.521,   NaN,15.43,1013.85,100.00,15.76,8.6,12.9,5.5,5.8,266.1,270.9,4.7,5.0,NaN, NaN,16.4,235.4,240.1,1121212890,1121212890,1,1.5,000089,000090,255.1,34.273183,-120.044108,1.51,NaN,NaN,16.742, NaN,NaN,-0.3, NaN, NaN
20050713,000159,1222425,34.273127,-120.044473,17.0,16.761,33.621,43.084,774.97,0.0,2.294,16.528,16.486, NaN,24.512,   NaN,15.37,1013.86,100.00,15.72,8.7,11.8,5.0,5.2,265.3,268.8,4.2,4.5,NaN, NaN,15.9,314.3,284.3,1121212920,1121212920,1,1.6,000119,000120,253.8,34.273132,-120.044347,1.31,NaN,NaN,16.765, NaN,NaN,NaN, NaN, NaN
20050713,000229,1222454,34.273038,-120.044660,17.0,16.785,33.624,43.111,728.29,0.0,2.237,16.521,16.478, NaN,24.509,   NaN,15.37,1013.83,100.00,15.71,11.8,14.7,4.2,4.4,267.4,270.5,3.6,3.8,NaN, NaN,16.2,197.6,237.9,1121212950,1121212950,1,1.1,000149,000150,252.0,34.273060,-120.044535,1.11,NaN,NaN,16.789, NaN,NaN,NaN, NaN, NaN
20050713,000259,1222485,34.272992,-120.044847,17.1,16.797,33.631,43.130,723.92,0.0,2.256,16.516,16.473, NaN,24.511,   NaN,15.36,1013.87,100.00,15.71,14.7,17.3,3.8,4.1,270.5,273.1,3.3,3.6,NaN, NaN,15.3,309.4,271.4,1121212980,1121212979,1,1.3,000179,000179,252.5,34.273010,-120.044708,0.94,NaN,NaN,16.801, NaN,NaN,NaN, NaN, NaN
20050713,000330,1222515,34.272922,-120.045010,17.0,16.807,33.631,43.140,720.07,0.0,2.407,16.519,16.478, NaN,24.509,   NaN,15.39,1013.85,100.00,15.73,22.7,23.8,3.6,3.9,280.2,281.0,3.1,3.4,NaN, NaN,15.9,219.5,229.9,1121213011,1121213011,1,1.1,000210,000211,254.3,34.272933,-120.044878,0.96,NaN,NaN,16.811, NaN,NaN,NaN, NaN, NaN
20050713,000400,1222545,34.272870,-120.045155,17.1,16.807,33.639,43.150,718.93,0.0,2.369,16.522,16.480, NaN,24.515,   NaN,15.49,1013.85,100.00,15.79,18.4,20.0,4.0,4.3,277.8,279.2,3.5,3.9,NaN, NaN,16.3,213.3,213.1,1121213041,1121213041,1,1.1,000240,000241,257.0,34.272877,-120.045020,0.79,NaN,NaN,16.811, NaN,NaN,NaN, NaN, NaN
20050713,000430,1222576,34.272827,-120.045288,17.1,16.798,33.647,43.150,729.36,0.0,2.350,16.522,16.480, NaN,24.524,   NaN,15.52,1013.81,100.00,15.80,11.1,14.1,4.4,4.6,272.2,275.3,4.0,4.3,NaN, NaN,16.0,330.7,283.4,1121213071,1121213071,1,0.8,000270,000271,259.3,34.272840,-120.045153,0.58,NaN,NaN,16.802, NaN,NaN,NaN, NaN, NaN
20050713,000500,1222606,34.272805,-120.045408,17.0,16.788,33.651,43.144,739.32,0.0,2.294,16.519,16.476, NaN,24.529,   NaN,15.49,1013.84,100.00,15.80,11.8,14.0,4.6,4.8,272.4,274.7,4.3,4.5,NaN, NaN,15.9,205.9,223.5,1121213101,1121213101,1,0.9,000300,000301,259.1,34.272802,-120.045278,0.59,NaN,NaN,16.792, NaN,NaN,NaN, NaN, NaN
20050713,000530,1222636,34.272768,-120.045513,17.2,16.761,33.662,43.132,742.21,0.0,2.256,16.515,16.468, NaN,24.544,   NaN,15.44,1013.84,100.00,15.76,16.2,16.9,4.7,5.0,276.7,277.2,4.5,4.7,NaN, NaN,15.5,308.6,282.2,1121213131,1121213131,1,1.1,000330,000331,257.5,34.272778,-120.045387,0.49,NaN,NaN,16.765, NaN,NaN,NaN, NaN, NaN
20050713,000559,1222665,34.272743,-120.045617,17.1,16.758,33.648,43.112,726.65,0.0,2.369,16.515,16.473, NaN,24.533,   NaN,15.43,1013.86,100.00,15.76,19.3,19.6,4.6,4.8,278.4,278.7,4.4,4.6,NaN, NaN,16.0,198.9,222.7,1121213160,1121213160,1,0.7,000359,000360,253.9,34.272750,-120.045480,0.49,NaN,NaN,16.762, NaN,NaN,NaN, NaN, NaN
20050713,000630,1222695,34.272690,-120.045703,17.1,16.787,33.625,43.113,715.86,0.0,2.237,16.520,16.478, NaN,24.509,   NaN,15.41,1013.91,100.00,15.74,20.9,22.6,4.7,4.9,275.5,277.2,4.4,4.6,NaN, NaN,15.7,269.9,204.4,1121213191,1121213191,1,0.6,000391,000391,250.8,34.272722,-120.045570,0.44,NaN,NaN,16.791, NaN,NaN,NaN, NaN, NaN
20050713,000700,1222725,34.272658,-120.045790,17.2,16.809,33.628,43.138,710.70,0.0,2.275,16.518,16.476, NaN,24.506,   NaN,15.42,1013.86,100.00,15.74,20.7,21.7,4.5,5.0,272.0,273.1,4.2,4.7,NaN, NaN,15.7,316.1,213.9,1121213221,1121213221,1,0.6,000421,000421,248.3,34.272692,-120.045652,0.51,NaN,NaN,16.813, NaN,NaN,NaN, NaN, NaN
20050713,000730,1222756,34.272615,-120.045857,17.1,16.819,33.629,43.148,723.61,0.0,2.237,16.521,16.476, NaN,24.504,   NaN,15.39,1013.85,100.00,15.72,27.5,30.0,4.5,4.7,278.5,281.1,4.4,4.6,NaN, NaN,16.1,190.3,252.0,1121213250,1121213250,1,0.4,000450,000450,246.3,34.272652,-120.045723,0.32,NaN,NaN,16.823, NaN,NaN,NaN, NaN, NaN
20050713,000800,1222786,34.272573,-120.045917,17.0,16.828,33.631,43.161,756.24,0.0,2.313,16.525,16.481, NaN,24.504,   NaN,15.37,1013.87,100.00,15.74,28.8,33.5,4.7,4.4,276.6,281.4,4.6,4.3,NaN, NaN,16.0,161.6,177.3,1121213281,1121213281,1,0.8,000480,000481,242.6,34.272605,-120.045787,0.35,NaN,NaN,16.832, NaN,NaN,NaN, NaN, NaN
20050713,000830,1222816,34.272513,-120.045955,17.4,16.844,33.630,43.174,757.14,0.0,2.294,16.524,16.481, NaN,24.499,   NaN,15.35,1013.81,100.00,15.72,31.9,33.2,4.8,4.3,275.3,276.6,4.6,4.1,NaN, NaN,16.7,290.2,257.0,1121213311,1121213311,1,0.8,000510,000511,240.5,34.272568,-120.045838,0.29,NaN,NaN,16.848, NaN,NaN,NaN, NaN, NaN
20050713,000900,1222845,34.272448,-120.046007,17.0,16.859,33.628,43.187,732.84,0.0,2.501,16.522,16.480, NaN,24.495,   NaN,15.34,1013.87,100.00,15.72,37.1,40.3,4.7,4.2,279.1,282.7,4.6,4.1,NaN, NaN,16.0,166.4,170.5,1121213341,1121213341,1,1.3,000540,000541,242.2,34.272495,-120.045878,0.43,NaN,NaN,16.863, NaN,NaN,NaN, NaN, NaN
20050713,000930,1222875,34.272385,-120.046102,17.0,16.863,33.633,43.196,743.76,0.0,2.445,16.520,16.479, NaN,24.498,   NaN,15.33,1013.84,100.00,15.69,31.7,37.1,4.6,4.3,278.2,283.6,4.5,4.2,NaN, NaN,15.4,310.1,264.6,1121213371,1121213371,1,1.0,000570,000571,249.6,34.272415,-120.045972,0.57,NaN,NaN,16.867, NaN,NaN,NaN, NaN, NaN
20050713,001001,1222907,34.272310,-120.046208,16.9,16.874,33.631,43.204,755.88,0.0,2.633,16.520,16.478, NaN,24.493,   NaN,15.38,1013.87,100.00,15.72,22.2,24.8,4.4,4.4,276.9,279.5,4.3,4.3,NaN, NaN,16.4,206.3,195.2,1121213401,1121213401,1,1.5,000601,000601,259.5,34.272322,-120.046070,0.63,NaN,NaN,16.878, NaN,NaN,NaN, NaN, NaN
20050713,001030,1222936,34.272285,-120.046337,17.1,16.881,33.635,43.216,747.81,0.0,2.520,16.521,16.476, NaN,24.494,   NaN,15.42,1013.82,100.00,15.75,8.8,10.7,4.7,4.7,271.9,273.9,4.4,4.4,NaN, NaN,16.0,289.9,257.1,1121213431,1121213431,1,0.9,000630,000631,267.3,34.272270,-120.046205,0.60,NaN,NaN,16.885, NaN,NaN,NaN, NaN, NaN
20050713,001100,1222966,34.272262,-120.046477,17.0,16.879,33.642,43.221,747.37,0.0,2.728,16.523,16.482, NaN,24.500,   NaN,15.42,1013.91,100.00,15.75,352.8,0.4,4.8,5.0,260.3,268.2,4.5,4.6,NaN, NaN,16.4,215.6,228.9,1121213461,1121213461,1,1.0,000660,000661,268.1,34.272242,-120.046345,0.81,NaN,NaN,16.883, NaN,NaN,NaN, NaN, NaN
20050713,001130,1222996,34.272248,-120.046630,17.1,16.879,33.642,43.221,764.55,0.0,2.633,16.531,16.488, NaN,24.500,   NaN,15.41,1013.82,100.00,15.74,349.5,358.9,5.3,5.3,257.5,267.4,4.8,4.8,NaN, NaN,16.2,262.8,255.2,1121213491,1121213491,1,0.7,000690,000691,264.5,34.272238,-120.046502,0.76,NaN,NaN,16.883, NaN,NaN,NaN, NaN, NaN
20050713,001200,1223025,34.272235,-120.046802,17.0,16.876,33.642,43.219,778.11,0.0,2.501,16.539,16.497, NaN,24.501,   NaN,15.35,1013.77,100.00,15.68,0.4,3.0,5.3,5.4,263.3,266.2,4.8,4.9,NaN, NaN,16.1,298.2,283.4,1121213521,1121213521,1,1.1,000720,000721,258.1,34.272247,-120.046670,0.81,NaN,NaN,16.880, NaN,NaN,NaN, NaN, NaN
20050713,001231,1223057,34.272198,-120.046960,17.1,16.865,33.645,43.213,805.02,0.0,2.407,16.548,16.507, NaN,24.506,   NaN,15.40,1013.82,100.00,15.72,6.6,9.2,5.3,5.5,263.2,266.0,4.8,5.0,NaN, NaN,16.8,191.3,209.3,1121213551,1121213551,1,0.8,000751,000751,250.6,34.272230,-120.046835,0.88,NaN,NaN,16.869, NaN,NaN,NaN, NaN, NaN
20050713,001301,1223087,34.272185,-120.047123,17.0,16.848,33.651,43.202,846.64,0.0,2.445,16.551,16.513, NaN,24.515,   NaN,15.34,1013.84,100.00,15.67,12.6,15.9,5.2,5.5,263.1,266.6,4.7,5.0,NaN, NaN,15.8,301.5,271.9,1121213581,1121213581,1,1.1,000781,000781,245.6,34.272220,-120.046982,0.87,NaN,NaN,16.852, NaN,NaN,NaN, NaN, NaN
20050713,001330,1223116,34.272120,-120.047213,17.0,16.847,33.642,43.191,878.52,0.0,2.388,16.554,16.516, NaN,24.508,   NaN,15.32,1013.83,100.00,15.66,16.2,18.5,4.7,5.1,261.8,264.0,4.4,4.8,NaN, NaN,15.9,173.8,202.1,1121213611,1121213611,1,1.2,000810,000811,242.1,34.272165,-120.047087,0.57,NaN,NaN,16.851, NaN,NaN,NaN, NaN, NaN
20050713,001400,1223146,34.272083,-120.047302,16.9,16.864,33.633,43.197,867.31,0.0,2.539,16.561,16.519, NaN,24.497,   NaN,15.30,1013.88,100.00,15.65,17.2,18.2,4.5,4.7,258.5,259.6,4.2,4.4,NaN, NaN,16.4,158.4,167.4,1121213641,1121213641,1,0.9,000840,000841,238.7,34.272130,-120.047178,0.62,NaN,NaN,16.868, NaN,NaN,NaN, NaN, NaN
20050713,001431,1223177,34.272058,-120.047382,17.1,16.877,33.632,43.209,848.35,0.0,2.501,16.565,16.523, NaN,24.493,   NaN,15.33,1013.84,100.00,15.68,18.8,17.0,4.2,4.4,258.8,256.7,3.9,4.3,NaN, NaN,16.4,325.7,308.8,1121213671,1121213671,1,1.2,000871,000871,236.8,34.272103,-120.047255,0.44,NaN,NaN,16.881, NaN,NaN,NaN, NaN, NaN
20050713,001500,1223205,34.271998,-120.047433,16.9,16.880,33.639,43.219,825.51,0.0,2.501,16.551,16.510, NaN,24.498,   NaN,15.34,1013.86,100.00,15.67,26.0,22.5,4.2,4.3,263.1,259.8,4.1,4.2,NaN, NaN,17.6,150.5,161.9,1121213701,1121213701,1,1.0,000901,000901,233.5,34.272073,-120.047293,0.37,NaN,NaN,16.884, NaN,NaN,NaN, NaN, NaN
20050713,001530,1223236,34.271943,-120.047472,17.0,16.895,33.627,43.220,789.62,0.0,2.709,16.531,16.489, NaN,24.486,   NaN,15.30,1013.88,100.00,15.65,27.9,29.2,4.5,4.3,262.1,263.4,4.4,4.3,NaN, NaN,18.9,155.9,275.3,1121213731,1121213731,1,0.4,000930,000931,229.6,34.272045,-120.047338,0.41,NaN,NaN,16.899, NaN,NaN,NaN, NaN, NaN
20050713,001600,1223266,34.271913,-120.047517,17.2,16.906,33.630,43.234,797.05,0.0,2.709,16.521,16.477, NaN,24.485,   NaN,15.25,1013.83,100.00,15.63,32.3,34.6,4.4,3.9,263.6,266.1,4.3,3.8,NaN, NaN,18.6,294.9,263.5,1121213761,1121213761,1,0.3,000960,000961,226.1,34.272010,-120.047378,0.37,NaN,NaN,16.910, NaN,NaN,NaN, NaN, NaN
20050713,001630,1223296,34.271870,-120.047537,17.0,16.890,33.648,43.239,803.04,0.0,2.633,16.522,16.479, NaN,24.502,   NaN,15.24,1013.82,100.00,15.61,37.1,41.1,4.1,3.5,263.4,267.5,4.1,3.5,NaN, NaN,18.3,311.2,277.9,1121213791,1121213791,1,0.3,000991,000991,220.8,34.271970,-120.047410,0.33,NaN,NaN,16.894, NaN,NaN,NaN, NaN, NaN
20050713,001700,1223326,34.271832,-120.047535,17.0,16.890,33.641,43.231,778.45,0.0,2.633,16.519,16.476, NaN,24.497,   NaN,15.23,1013.81,100.00,15.61,41.8,48.7,3.9,3.3,263.9,270.6,3.9,3.4,NaN, NaN,18.5,306.6,301.3,1121213821,1121213821,1,0.8,001021,001021,214.0,34.271940,-120.047418,0.21,NaN,NaN,16.894, NaN,NaN,NaN, NaN, NaN
20050713,001730,1223355,34.271793,-120.047525,16.9,16.889,33.642,43.231,743.82,0.0,2.577,16.511,16.468, NaN,24.498,   NaN,15.24,1013.83,100.00,15.61,50.0,58.1,3.9,2.9,265.9,274.1,4.1,3.2,NaN, NaN,18.6,134.3,198.4,1121213851,1121213851,1,0.3,001050,001051,206.1,34.271907,-120.047428,0.28,NaN,NaN,16.893, NaN,NaN,NaN, NaN, NaN
20050713,001800,1223385,34.271758,-120.047483,17.1,16.895,33.636,43.230,736.91,0.0,2.596,16.487,16.441, NaN,24.492,   NaN,15.19,1013.85,100.00,15.57,58.4,63.7,3.5,2.3,265.4,271.3,3.7,2.6,NaN, NaN,16.2,269.7,272.3,1121213881,1121213881,1,0.9,001080,001081,201.0,34.271873,-120.047417,0.27,NaN,NaN,16.899, NaN,NaN,NaN, NaN, NaN
20050713,001830,1223416,34.271728,-120.047478,16.9,16.890,33.648,43.240,732.89,0.0,2.482,16.447,16.401, NaN,24.503,   NaN,15.16,1013.85,100.00,15.56,59.7,64.7,3.4,2.1,259.9,264.5,3.5,2.3,NaN, NaN,13.5,120.8,117.3,1121213911,1121213911,1,2.0,001110,001111,198.2,34.271833,-120.047388,0.40,NaN,NaN,16.894, NaN,NaN,NaN, NaN, NaN
20050713,001900,1223446,34.271698,-120.047440,16.9,16.869,33.653,43.225,743.50,0.0,2.426,16.423,16.376, NaN,24.512,   NaN,15.13,1013.79,100.00,15.52,64.5,68.4,3.2,2.0,262.1,264.3,3.1,2.0,NaN, NaN,13.9,292.9,104.9,1121213941,1121213941,1,0.5,001140,001141,195.1,34.271805,-120.047370,0.16,NaN,NaN,16.873, NaN,NaN,NaN, NaN, NaN
20050713,001930,1223476,34.271675,-120.047413,17.0,16.853,33.654,43.211,725.80,0.0,2.539,16.420,16.377, NaN,24.515,   NaN,15.18,1013.83,100.00,15.56,75.0,71.0,2.9,2.1,270.8,264.9,2.9,2.1,NaN, NaN,13.3,104.8,104.2,1121213971,1121213971,1,1.6,001170,001171,193.1,34.271792,-120.047335,0.22,NaN,NaN,16.857, NaN,NaN,NaN, NaN, NaN
20050713,002000,1223506,34.271667,-120.047365,17.0,16.844,33.649,43.197,699.51,0.0,2.407,16.419,16.376, NaN,24.514,   NaN,15.24,1013.79,100.00,15.58,78.7,69.5,2.8,2.2,272.4,265.7,2.9,2.4,NaN, NaN,13.6,282.1,284.8,1121214001,1121214001,1,1.1,001200,001201,191.0,34.271792,-120.047318,0.07,NaN,NaN,16.848, NaN,NaN,NaN, NaN, NaN
20050713,002030,1223535,34.271655,-120.047283,16.9,16.837,33.651,43.192,710.10,0.0,2.445,16.404,16.357, NaN,24.518,   NaN,15.26,1013.78,100.00,15.60,80.8,81.1,2.9,2.1,270.7,278.9,3.1,2.4,NaN, NaN,12.4,101.1,99.4,1121214031,1121214031,1,2.5,001231,001231,190.1,34.271778,-120.047248,0.12,NaN,NaN,16.841, NaN,NaN,NaN, NaN, NaN
20050713,002100,1223565,34.271652,-120.047282,17.0,16.835,33.644,43.182,750.34,0.0,2.369,16.380,16.334, NaN,24.513,   NaN,15.35,1013.75,100.00,15.66,94.2,116.1,3.0,2.3,284.6,307.8,3.2,2.6,NaN, NaN,13.2,92.9,253.1,1121214061,1121214061,1,0.2,001260,001261,191.5,34.271768,-120.047227,0.22,NaN,NaN,16.839, NaN,NaN,NaN, NaN, NaN
20050713,002130,1223596,34.271638,-120.047220,17.0,16.835,33.644,43.182,787.26,0.0,2.501,16.357,16.313, NaN,24.513,   NaN,15.37,1013.72,100.00,15.68,94.3,98.0,3.5,2.5,285.6,288.8,3.6,2.6,NaN, NaN,13.7,96.9,107.5,1121214091,1121214091,1,0.9,001290,001291,193.0,34.271755,-120.047163,0.15,NaN,NaN,16.839, NaN,NaN,NaN, NaN, NaN
20050713,002200,1223626,34.271618,-120.047170,17.1,16.830,33.642,43.175,842.52,0.0,2.388,16.350,16.303, NaN,24.512,   NaN,15.34,1013.73,100.00,15.65,90.9,88.8,3.4,2.0,283.0,280.6,3.5,2.2,NaN, NaN,17.9,101.1,94.5,1121214121,1121214121,1,0.0,001320,001321,191.8,34.271755,-120.047120,0.06,NaN,NaN,16.834, NaN,NaN,NaN, NaN, NaN
20050713,002230,1223656,34.271610,-120.047090,17.1,16.826,33.647,43.177,834.74,0.0,2.331,16.350,16.304, NaN,24.517,   NaN,15.36,1013.75,100.00,15.66,85.9,98.9,3.5,1.7,277.0,285.9,3.7,1.8,NaN, NaN,17.9,83.9,93.5,1121214151,1121214151,1,0.8,001351,001351,189.1,34.271762,-120.047058,0.06,NaN,NaN,16.830, NaN,NaN,NaN, NaN, NaN
20050713,002300,1223685,34.271657,-120.047047,17.0,16.813,33.649,43.166,751.64,0.0,2.388,16.351,16.305, NaN,24.521,   NaN,15.28,1013.76,100.00,15.60,79.2,87.0,3.6,2.2,267.3,276.6,3.8,2.4,NaN, NaN,14.3,274.1,287.5,1121214181,1121214181,1,0.5,001380,001381,184.5,34.271770,-120.047010,0.18,NaN,NaN,16.817, NaN,NaN,NaN, NaN, NaN
20050713,002330,1223715,34.271652,-120.046980,16.9,16.817,33.637,43.157,702.29,0.0,2.445,16.352,16.309, NaN,24.511,   NaN,15.24,1013.76,100.00,15.58,82.3,87.2,3.3,2.2,266.3,273.6,3.5,2.4,NaN, NaN,13.8,89.8,91.4,1121214211,1121214211,1,1.5,001410,001411,181.6,34.271768,-120.046948,0.23,NaN,NaN,16.821, NaN,NaN,NaN, NaN, NaN
20050713,002400,1223746,34.271633,-120.046925,17.2,16.833,33.628,43.162,686.00,0.0,2.426,16.345,16.300, NaN,24.501,   NaN,15.29,1013.75,100.00,15.59,84.6,91.0,3.1,2.2,266.5,277.8,3.3,2.4,NaN, NaN,13.3,259.6,248.2,1121214241,1121214241,1,0.7,001440,001441,182.6,34.271747,-120.046900,0.43,NaN,NaN,16.837, NaN,NaN,NaN, NaN, NaN
20050713,002430,1223776,34.271550,-120.046850,17.1,16.851,33.626,43.176,674.37,0.0,2.369,16.339,16.295, NaN,24.495,   NaN,15.29,1013.78,100.00,15.61,77.4,80.5,3.1,1.7,265.3,275.0,3.4,2.1,NaN, NaN,14.0,111.5,140.2,1121214271,1121214271,1,1.0,001470,001471,196.7,34.271648,-120.046793,0.70,NaN,NaN,16.855, NaN,NaN,NaN, NaN, NaN
20050713,002500,1223806,34.271440,-120.046873,17.1,16.845,33.639,43.186,668.99,0.0,2.539,16.354,16.313, NaN,24.506,   NaN,15.31,1013.79,100.00,15.63,65.4,73.0,3.1,1.9,270.3,284.5,3.3,2.2,NaN, NaN,13.9,166.9,161.0,1121214301,1121214301,1,1.5,001500,001501,215.8,34.271503,-120.046758,0.86,NaN,NaN,16.849, NaN,NaN,NaN, NaN, NaN
20050713,002531,1223837,34.271328,-120.046943,16.9,16.813,33.659,43.179,672.72,0.0,2.464,16.382,16.340, NaN,24.529,   NaN,15.39,1013.80,100.00,15.70,44.9,46.5,2.9,2.4,272.0,276.7,2.8,2.4,NaN, NaN,13.6,317.7,286.2,1121214331,1121214331,1,1.5,001531,001531,239.1,34.271348,-120.046797,0.80,NaN,NaN,16.817, NaN,NaN,NaN, NaN, NaN
20050713,002600,1223865,34.271225,-120.047052,16.9,16.796,33.658,43.160,707.09,0.0,2.482,16.399,16.358, NaN,24.532,   NaN,15.40,1013.85,100.00,15.74,24.7,29.3,3.4,3.6,271.7,276.6,3.1,3.5,NaN, NaN,13.8,182.3,187.0,1121214361,1121214361,1,1.9,001560,001561,258.7,34.271202,-120.046903,0.90,NaN,NaN,16.800, NaN,NaN,NaN, NaN, NaN
20050713,002630,1223895,34.271188,-120.047158,17.1,16.821,33.627,43.150,732.23,0.0,2.633,16.404,16.361, NaN,24.503,   NaN,15.36,1013.81,100.00,15.70,12.2,17.3,4.4,4.7,274.8,279.6,4.1,4.5,NaN, NaN,13.6,331.5,274.5,1121214391,1121214391,1,0.6,001590,001591,268.5,34.271147,-120.047010,0.65,NaN,NaN,16.825, NaN,NaN,NaN, NaN, NaN
20050713,002700,1223926,34.271157,-120.047247,17.1,16.834,33.628,43.162,736.50,0.0,2.482,16.389,16.345, NaN,24.500,   NaN,15.28,1013.77,100.00,15.61,4.4,9.2,4.8,4.9,277.7,282.6,4.5,4.6,NaN, NaN,14.2,210.0,270.1,1121214421,1121214421,1,0.3,001620,001621,274.8,34.271105,-120.047097,0.43,NaN,NaN,16.838, NaN,NaN,NaN, NaN, NaN
20050713,002730,1223956,34.271158,-120.047327,16.9,16.847,33.625,43.171,720.50,0.0,2.558,16.374,16.331, NaN,24.495,   NaN,15.27,1013.79,100.00,15.61,357.2,1.0,4.5,4.5,276.9,280.8,4.3,4.4,NaN, NaN,13.9,210.0,240.9,1121214451,1121214451,1,0.4,001650,001651,279.5,34.271092,-120.047180,0.32,NaN,NaN,16.851, NaN,NaN,NaN, NaN, NaN
20050713,002800,1223986,34.271152,-120.047390,17.1,16.850,33.629,43.179,738.05,0.0,2.520,16.379,16.338, NaN,24.497,   NaN,15.24,1013.75,100.00,15.57,355.3,359.7,4.5,4.6,279.0,283.3,4.4,4.5,NaN, NaN,13.9,210.0,265.5,1121214481,1121214481,1,0.4,001680,001681,283.7,34.271077,-120.047245,0.16,NaN,NaN,16.854, NaN,NaN,NaN, NaN, NaN
20050713,002831,1224017,34.271163,-120.047435,17.0,16.837,33.643,43.183,735.80,0.0,2.407,16.397,16.354, NaN,24.511,   NaN,15.22,1013.76,100.00,15.56,354.8,357.1,4.6,4.7,281.4,283.7,4.5,4.6,NaN, NaN,14.4,198.8,234.7,1121214512,1121214511,1,0.7,001711,001711,286.8,34.271088,-120.047297,0.34,NaN,NaN,16.841, NaN,NaN,NaN, NaN, NaN
20050713,002900,1224045,34.271195,-120.047468,17.1,16.847,33.634,43.182,701.32,0.0,2.482,16.395,16.351, NaN,24.502,   NaN,15.21,1013.73,100.00,15.57,354.0,356.2,4.8,4.6,279.1,281.1,4.7,4.5,NaN, NaN,13.8,358.8,4.7,1121214541,1121214541,1,0.3,001740,001741,288.1,34.271118,-120.047327,0.01,NaN,NaN,16.851, NaN,NaN,NaN, NaN, NaN
20050713,002930,1224075,34.271212,-120.047500,17.0,16.853,33.637,43.191,714.52,0.0,2.577,16.382,16.338, NaN,24.503,   NaN,15.22,1013.74,100.00,15.55,353.5,354.5,4.9,4.9,278.5,279.4,4.8,4.8,NaN, NaN,14.2,354.3,358.4,1121214571,1121214571,1,0.5,001770,001771,289.1,34.271142,-120.047362,0.19,NaN,NaN,16.857, NaN,NaN,NaN, NaN, NaN
20050713,003000,1224106,34.271242,-120.047515,17.0,16.861,33.633,43.194,738.88,0.0,2.671,16.402,16.360, NaN,24.498,   NaN,15.15,1013.70,100.00,15.49,349.1,349.7,5.2,5.2,275.7,276.3,5.2,5.2,NaN, NaN,13.7,354.3,184.3,1121214601,1121214601,1,0.3,001800,001801,290.6,34.271153,-120.047383,-0.02,NaN,NaN,16.865, NaN,NaN,NaN, NaN, NaN
20050713,003030,1224136,34.271272,-120.047520,16.9,16.868,33.630,43.197,756.26,0.0,2.671,16.430,16.389, NaN,24.494,   NaN,15.15,1013.72,100.00,15.49,350.1,351.9,5.2,4.9,277.9,279.5,5.2,4.9,NaN, NaN,13.3,192.5,227.2,1121214631,1121214631,1,0.5,001830,001831,291.3,34.271178,-120.047393,-0.10,NaN,NaN,16.872, NaN,NaN,NaN, NaN, NaN
20050713,003100,1224166,34.271293,-120.047532,17.0,16.886,33.623,43.207,737.43,0.0,2.671,16.455,16.413, NaN,24.485,   NaN,15.07,1013.73,100.00,15.43,351.4,356.4,5.3,5.0,281.8,286.8,5.3,5.0,NaN, NaN,13.3,6.9,346.7,1121214661,1121214661,1,0.5,001860,001861,291.3,34.271207,-120.047403,0.02,NaN,NaN,16.890, NaN,NaN,NaN, NaN, NaN
20050713,003131,1224197,34.271330,-120.047578,17.1,16.887,33.634,43.220,704.22,0.0,2.520,16.475,16.433, NaN,24.492,   NaN,15.03,1013.67,100.00,15.40,350.2,356.4,5.1,4.8,278.2,284.3,5.0,4.7,NaN, NaN,12.9,204.7,262.1,1121214692,1121214691,1,0.7,001891,001891,287.6,34.271250,-120.047447,0.23,NaN,NaN,16.891, NaN,NaN,NaN, NaN, NaN
20050713,003200,1224225,34.271385,-120.047678,17.1,16.897,33.629,43.224,679.28,0.0,2.728,16.490,16.447, NaN,24.487,   NaN,15.04,1013.70,100.00,15.40,354.0,357.0,4.8,4.6,277.9,280.9,4.6,4.4,NaN, NaN,13.9,309.8,304.6,1121214721,1121214721,1,0.6,001920,001921,278.6,34.271323,-120.047527,0.51,NaN,NaN,16.901, NaN,NaN,NaN, NaN, NaN
20050713,003230,1224256,34.271413,-120.047802,17.0,16.895,33.637,43.232,636.07,0.0,2.633,16.505,16.464, NaN,24.493,   NaN,15.09,1013.73,100.00,15.41,2.3,3.6,4.7,4.7,277.3,278.8,4.3,4.3,NaN, NaN,14.1,307.2,316.4,1121214751,1121214751,1,0.9,001950,001951,263.5,34.271388,-120.047647,0.83,NaN,NaN,16.899, NaN,NaN,NaN, NaN, NaN
20050713,003300,1224286,34.271400,-120.047962,17.1,16.897,33.637,43.233,640.69,0.0,2.690,16.518,16.479, NaN,24.493,   NaN,15.12,1013.72,100.00,15.48,14.8,15.6,4.7,5.1,276.9,277.8,4.3,4.6,NaN, NaN,14.3,235.1,243.9,1121214781,1121214781,1,0.9,001980,001981,248.3,34.271405,-120.047810,0.99,NaN,NaN,16.901, NaN,NaN,NaN, NaN, NaN
20050713,003331,1224316,34.271335,-120.048155,17.1,16.899,33.638,43.236,661.47,0.0,2.690,16.522,16.483, NaN,24.493,   NaN,15.07,1013.69,100.00,15.41,26.5,29.1,4.8,5.0,276.7,279.6,4.4,4.5,NaN, NaN,14.4,216.9,235.0,1121214811,1121214811,1,1.3,002011,002011,242.3,34.271360,-120.047997,1.21,NaN,NaN,16.903, NaN,NaN,NaN, NaN, NaN
20050713,003401,1224347,34.271237,-120.048330,17.2,16.892,33.642,43.234,651.14,0.0,2.879,16.526,16.485, NaN,24.497,   NaN,15.06,1013.59,100.00,15.42,29.5,32.2,4.9,4.7,276.9,279.9,4.4,4.3,NaN, NaN,13.6,303.6,260.3,1121214841,1121214841,1,1.2,002041,002041,246.1,34.271253,-120.048173,1.24,NaN,NaN,16.896, NaN,NaN,NaN, NaN, NaN
20050713,003430,1224375,34.271153,-120.048533,17.2,16.872,33.653,43.227,618.69,0.0,2.690,16.531,16.494, NaN,24.511,   NaN,15.13,1013.60,100.00,15.45,25.1,23.3,5.0,5.6,277.2,274.5,4.5,5.1,NaN, NaN,13.2,217.0,234.8,1121214871,1121214871,1,1.6,002070,002071,253.3,34.271137,-120.048387,1.42,NaN,NaN,16.876, NaN,NaN,NaN, NaN, NaN
20050713,003501,1224407,34.271058,-120.048772,17.0,16.883,33.638,43.221,659.30,0.0,2.822,16.541,16.503, NaN,24.497,   NaN,15.16,1013.61,100.00,15.48,16.8,16.3,5.4,6.0,274.3,273.3,4.7,5.3,NaN, NaN,13.6,265.3,243.3,1121214902,1121214901,1,1.6,002101,002101,257.3,34.271053,-120.048620,1.47,NaN,NaN,16.887, NaN,NaN,NaN, NaN, NaN
20050713,003530,1224436,34.271003,-120.049013,17.0,16.885,33.637,43.222,646.46,0.0,2.973,16.550,16.510, NaN,24.496,   NaN,15.10,1013.58,100.00,15.44,4.9,6.6,5.6,5.9,264.4,266.2,4.8,5.1,NaN, NaN,14.0,241.9,251.9,1121214931,1121214931,1,1.3,002131,002131,259.5,34.270988,-120.048867,1.46,NaN,NaN,16.889, NaN,NaN,NaN, NaN, NaN
20050713,003600,1224466,34.270960,-120.049247,17.1,16.883,33.638,43.222,645.95,0.0,2.935,16.551,16.511, NaN,24.497,   NaN,15.03,1013.63,100.00,15.41,359.4,2.8,5.7,5.7,259.5,263.0,5.1,5.0,NaN, NaN,14.2,258.5,265.2,1121214961,1121214961,1,1.4,002160,002161,258.5,34.270947,-120.049098,1.43,NaN,NaN,16.887, NaN,NaN,NaN, NaN, NaN
20050713,003630,1224496,34.270905,-120.049482,17.1,16.881,33.641,43.223,665.90,0.0,2.860,16.552,16.513, NaN,24.499,   NaN,14.95,1013.64,100.00,15.34,5.6,8.5,5.5,5.5,265.5,268.7,5.0,4.8,NaN, NaN,13.9,272.3,264.2,1121214991,1121214991,1,1.3,002190,002191,255.3,34.270908,-120.049337,1.38,NaN,NaN,16.885, NaN,NaN,NaN, NaN, NaN